Volver al catálogo

SL-8 DEB

ActivoLEO
NORAD 43117·DEBRIS·🇷🇺 Russia

Lanzado Jun 21, 1988 desde Plesetsk Cosmodrome

Loading…

Próximos Pases (próximas 24 horas)

TLE

EnvejeciendoSource: Space-Track

Época: Sep 9, 2026, 10:40 UTC

1 43117U 88053E   26252.44463786  .00000089  00000-0  37986-4 0  9993
2 43117  74.0517 148.6134 0021299 279.6971  80.1778 14.38226928455452

Sigue SL-8 DEB en tiempo real con AllMySat

Download on the App Store